Regional Weather Roundup
Issued by NWS Albany, NY

Home | Current Version | Previous Version | Text Only | Print | Product List | Glossary On
Versions: 1 2 3 4 5 6 7 8 9 10 11 12 13 14 15 16 17 18 19 20 21 22 23 24 25 26 27 28 29 30 31 32 33 34 35 36 37 38 39 40 41 42 43 44 45 46 47 48 49 50
000
ASUS41 KALY 291810
RWRALY

NEW YORK STATE HOURLY WEATHER ROUNDUP
NATIONAL WEATHER SERVICE ALBANY NY
200 PM EDT SAT AUG 29 2015

NOTE: "FAIR" INDICATES FEW OR NO CLOUDS BELOW 12,000 FEET WITH NO
SIGNIFICANT WEATHER AND/OR NO OBSTRUCTIONS TO VISIBILITY.

NYZ032-033-038>043-046>054-057>066-NYZ062>081-291900-
EAST


CITY           SKY/WX    TMP DP  RH WIND       PRES   REMARKS
ALBANY         PTSUNNY   78  56  46 S8        30.14F
GLENS FALLS    MOSUNNY   77  58  51 S8G17     30.13F
POUGHKEEPSIE   MOSUNNY   82  55  39 VRB5      30.16F
NEWBURGH       MOSUNNY   79  61  53 NW5       30.18F
MONTGOMERY     MOSUNNY   81  59  47 S3        30.16F
WHITE PLAINS   PTSUNNY   81  54  39 NW5       30.17F
ISLIP          PTSUNNY   81  58  45 S12       30.16F
NEW YORK CITY  PTSUNNY   82  51  34 W5        30.15F
CENTRAL PARK   MOSUNNY   85  53  33 CALM      30.18F
$$

NYZ005>009-017-018-044>046-055-056-291900-
CENTRAL


CITY           SKY/WX    TMP DP  RH WIND       PRES   REMARKS
FULTON         MOSUNNY   78  60  53 W8        30.14F
SYRACUSE       PTSUNNY   80  57  45 SW9       30.12F
ROME           SUNNY     78  57  48 W13G20    30.14F
ELMIRA         MOSUNNY   80  58  46 W7        30.14F
BINGHAMTON     MOSUNNY   75  59  57 SW8       30.18F
MONTICELLO     MOSUNNY   75  57  53 W6        30.21F
$$

NYZ026>034-041>043-291900-
NORTH


CITY           SKY/WX    TMP DP  RH WIND       PRES   REMARKS
WATERTOWN      MOSUNNY   74  62  66 W12       30.13F
FORT DRUM      NOT AVBL
MASSENA        PTSUNNY   75  59  57 SW9       30.11F
SARANAC LAKE   MOSUNNY   73  54  51 SW9       30.14F
PLATTSBURGH    MOSUNNY   72  58  61 SE14      30.11F
$$

NYZ001>004-010>016-019>021-291900-
WEST


CITY           SKY/WX    TMP DP  RH WIND       PRES   REMARKS
NIAGARA FALLS  PTSUNNY   75  61  61 S6        30.14F
BUFFALO        CLOUDY    74  56  53 W5        30.15F
DUNKIRK        PTSUNNY   76  56  49 W5        30.15F
JAMESTOWN      PTSUNNY   73  55  53 SW7       30.18F
WELLSVILLE     MOSUNNY   77  51  40 W8        30.22S
ROCHESTER      CLOUDY    75  58  55 W6        30.15F
PENN YAN       PTSUNNY   78  55  44 SW6       30.16F
$$

             KEY
       WCI = WIND CHILL INDEX
       VSB = VISIBILITY
       HX  = HEAT INDEX
$$



USA.gov is the U.S. government's official web portal to all federal, state and local government web resources and services.